{"data":{"norad_id":54121,"intl_designator":"2022-138J","name":"ONEWEB-0503","alt_names":[],"object_type":"PAYLOAD","status":"ACTIVE","operator":null,"country":"UK","launch_date":"2022-10-22","launch_site_code":"SRILR","launch_vehicle":null,"mission":null,"orbit_class":"UNKNOWN","rcs_meters":null,"size_class":null,"mass_kg":null,"dimensions":null,"purposes":["comms"],"wikipedia_slug":null,"has_3d_model":false,"image_url":null,"decayed_at":null,"tle_current":{"epoch":"2026-05-25T00:24:10.058112Z","epoch_age_seconds":80576,"freshness":"FRESH","line1":"1 54121U 22138J   26145.01678308  .00000070  00000+0  14342-3 0  9993","line2":"2 54121  87.9160 309.5773 0002063  91.3503 268.7866 13.19726095173762","mean_motion":13.19726095,"eccentricity":0.0002063,"inclination_deg":87.916,"raan_deg":309.5773,"arg_perigee_deg":91.3503,"mean_anomaly_deg":268.7866,"bstar":0.00014342,"rev_number":17376,"period_min":109.11355056596,"perigee_km":1184.2059347941,"apogee_km":1187.3268013238,"semimajor_km":7563.9033680589,"source":"CELESTRAK","updated_at":"2026-05-25T13:38:22.585948Z"}}}